User: anonymous   Login
Location: Unspecified
(0.0000°N, 0.0000°E)
Time: 11:33:40
(UTC+00:00)
Language:

BUGSAT 1 - Orbit

View from above orbital plane
View from above orbital plane
View from above satellite
View from above satellite

Ground track
Ground track

The orbit data is extracted from the following two-line orbital elements,

1 40014U 14033E   17265.17123192  .00001000  00000-0  96534-4 0  9999
2 40014  97.9554 191.3337 0032609   7.3024 352.8664 14.94841945177696
Epoch (UTC): 22 September 2017 04:06:34
Eccentricity: 0.0032609
inclination: 97.9554°
perigee height: 560 km
apogee height: 605 km
right ascension of ascending node: 191.3337°
argument of perigee: 7.3024°
revolutions per day: 14.94841945
mean anomaly at epoch: 352.8664°
orbit number at epoch: 17769

The dashed part of the orbit path shows where the satellite is in the earth's shadow,  

DLR